Погода в Снагости

Россия / Курская область     51°18′51″N   34°52′57″E
темп.,
°C
ветер,
м/с
пор.,
м/с
влажн.,
%
обл.,
%
осадки,
мм/ч
давл.,
гПа
погр.,
м
22 мая, вс
вс2200:00+13вюв3498100 3.6 998129
03:00+12з71497100 4.0 998621
06:00+11зсз8139165 0.1 998587
09:00+10з61191100 0.2 998726
12:00+9з71193100 0.2 997835
15:00+10з6992100 0.3 997824
18:00+9св4993100 0.7 1000534
21:00+8ссз3695100 0.8 1002141
23 мая, пн
пн2300:00+8ссв399179 0.1 1004331
03:00+5с35925 0.1 1006104
06:00+5с258896 0.0 1007134
09:00+9ссв34685 0.0 1008593
12:00+12с455571 0.1 10081848
15:00+13с454987 0.1 10082073
18:00+11св456466 0.0 1009540
21:00+7ю117322 0.0 101010
24 мая, вт
вт2400:00+6з35795 0.0 101164
03:00+4зсз34865 0.0 101256
06:00+4зсз36810 0.0 1012139
09:00+11сз586985 0.0 1012759
12:00+13ссз7965100 0.4 10121554
15:00+15ссз5853100 0.4 10121974
18:00+14сз577283 0.5 10121022
21:00+10з4108937 0.8 1014181
25 мая, ср
ср2500:00+8зсз4109050 0.0 1015176
03:00+7з48932 0.0 1016130
06:00+10з41186100 0.0 1016260
09:00+15сз697279 0.0 1017636
12:00+17сз68659 0.6 10171222
15:00+19зсз685774 1.4 10171929
18:00+17зсз486747 0.6 1017499
21:00+14зюз368128 0.8 1017102
26 мая, чт
чт2600:00+11зюз3480100 0.0 101757
03:00+10юз4108366 0.0 1016159
06:00+11ююз4118159 0.0 1014232
09:00+16ююз71367100 0.0 1012666
12:00+17юз91366100 0.0 10111343
15:00+11юз81496100 4.9 1010794
18:00+14з512866 0.6 1009971
21:00+11з41289100 1.3 1010281